This demonstration page uses our WeatherBlox Daily Observations layout. Learn more.

36.17497, -115.13722

Hourly Observations for April 18, 2018

Temp ( °F °C ) Dew Point ( °F °C ) Humidity (%) Winds ( mph kmh ) Pressure ( in mb ) Visibility ( mi km ) Precip ( " mm )
12:53 am 00:53 Clear 53 11.7 12 -11.1 19 19 N 8 13 30.09 1019 10 16.09344 0 0
1:53 am 01:53 Clear 52 11.1 12 -11.1 20 20 Calm 30.12 1020 10 16.09344 0 0
2:53 am 02:53 Clear 52 11.1 14 -10 22 22 Calm 30.09 1019 10 16.09344 0 0
3:53 am 03:53 Clear 52 11.1 15 -9.4 23 23 WSW 3 6 30.12 1020 10 16.09344 0 0
4:53 am 04:53 Clear 50 10 15 -9.4 25 25 WSW 5 7 30.12 1020 10 16.09344 0 0
5:53 am 05:53 Clear 51 10.6 12 -11.1 21 21 WSW 3 6 30.12 1020 10 16.09344 0 0
6:53 am 06:53 Sunny 49 9.4 15 -9.4 26 26 WNW 5 7 30.12 1020 10 16.09344 0 0
7:53 am 07:53 Sunny 57 13.9 14 -10 18 18 S 3 6 30.12 1020 10 16.09344 0 0
8:53 am 08:53 Sunny 60 15.6 9 -12.8 13 13 SE 5 7 30.12 1020 10 16.09344 0 0
9:53 am 09:53 Sunny 64 17.8 6 -14.4 10 10 E 12 19 30.12 1020 10 16.09344 0 0
10:53 am 10:53 Sunny 65 18.3 3 -16.1 8 8 SE 12 19 30.09 1019 10 16.09344 0 0
11:53 am 11:53 Sunny 66 18.9 3 -16.1 8 8 N 6 9 30.09 1019 10 16.09344 0 0
12:53 pm 12:53 Sunny 69 20.6 3 -16.1 7 7 ESE 5 7 30.06 1018 10 16.09344 0 0
1:53 pm 13:53 Sunny 70 21.1 4 -15.6 7 7 SE 6 9 30 1016 10 16.09344 0 0
2:53 pm 14:53 Sunny 72 22.2 4 -15.6 7 7 SSW 12 19 29.97 1015 10 16.09344 0 0
3:53 pm 15:53 Sunny 73 22.8 5 -15 7 7 Calm 29.94 1014 10 16.09344 0 0
4:53 pm 16:53 Sunny 74 23.3 5 -15 7 7 ESE 7 11 29.88 1012 10 16.09344 0 0
5:53 pm 17:53 Sunny 74 23.3 6 -14.4 7 7 E 8 13 29.85 1011 10 16.09344 0 0
6:53 pm 18:53 Sunny 73 22.8 6 -14.4 7 7 E 8 13 29.83 1010 10 16.09344 0 0
7:53 pm 19:53 Clear 72 22.2 5 -15 7 7 SSE 17 28 29.83 1010 10 16.09344 0 0
8:53 pm 20:53 Clear 71 21.7 3 -16.1 7 7 S 16 26 29.83 1010 10 16.09344 0 0
9:53 pm 21:53 Clear 69 20.6 5 -15 8 8 SSW 6 9 29.85 1011 10 16.09344 0 0
10:53 pm 22:53 Clear 68 20 5 -15 8 8 SSW 7 11 29.83 1010 10 16.09344 0 0
11:53 pm 23:53 Clear 66 18.9 6 -14.4 9 9 S 8 13 29.83 1010 10 16.09344 0 0

Powered by AerisWeather